TimeMST,TemperatureF,Dew PointF,Humidity,Sea Level PressureIn,VisibilityMPH,Wind Direction,Wind SpeedMPH,Gust SpeedMPH,PrecipitationIn,Events,Conditions,WindDirDegrees,DateUTC
12:53 AM,19.9,12.0,71,29.97,10.0,ESE,19.6,26.5,N/A,,Clear,120,2013-02-20 07:53:00
1:53 AM,19.9,9.0,62,29.95,10.0,SE,24.2,32.2,N/A,,Clear,130,2013-02-20 08:53:00
2:53 AM,19.0,8.1,62,29.96,10.0,ESE,15.0,-,N/A,,Clear,120,2013-02-20 09:53:00
3:53 AM,18.0,8.1,65,29.94,10.0,ESE,17.3,-,N/A,,Clear,120,2013-02-20 10:53:00
4:53 AM,17.6,8.6,68,29.86,10.0,SE,17.3,-,N/A,,Partly Cloudy,130,2013-02-20 11:53:00
5:53 AM,16.0,6.1,65,29.96,10.0,ESE,15.0,-,N/A,,Scattered Clouds,120,2013-02-20 12:53:00
6:04 AM,17.6,6.8,63,29.86,10.0,ESE,16.1,-,N/A,,Mostly Cloudy,120,2013-02-20 13:04:00
6:53 AM,16.0,6.1,65,29.97,10.0,ESE,18.4,-,N/A,,Overcast,120,2013-02-20 13:53:00
7:53 AM,17.1,5.0,59,29.98,10.0,ESE,17.3,-,N/A,,Overcast,120,2013-02-20 14:53:00
8:53 AM,19.4,6.8,58,29.85,10.0,SE,19.6,-,N/A,,Overcast,130,2013-02-20 15:53:00
9:53 AM,23.0,8.1,53,29.95,10.0,ESE,21.9,-,N/A,,Overcast,120,2013-02-20 16:53:00
10:53 AM,23.0,12.0,63,29.95,10.0,SE,20.7,27.6,N/A,,Overcast,130,2013-02-20 17:53:00
11:53 AM,24.1,14.0,65,29.94,10.0,SE,16.1,-,N/A,,Overcast,130,2013-02-20 18:53:00
12:53 PM,26.1,16.0,66,29.90,10.0,SE,19.6,24.2,N/A,,Overcast,130,2013-02-20 19:53:00
1:53 PM,26.1,18.0,71,29.88,10.0,SE,18.4,-,N/A,,Overcast,130,2013-02-20 20:53:00
2:33 PM,24.8,19.4,80,29.77,10.0,SE,17.3,24.2,N/A,,Overcast,130,2013-02-20 21:33:00
2:53 PM,25.0,18.0,75,29.89,10.0,SE,18.4,-,N/A,,Overcast,140,2013-02-20 21:53:00
3:53 PM,24.1,18.0,77,29.90,10.0,ESE,17.3,-,N/A,,Overcast,120,2013-02-20 22:53:00
4:39 PM,24.8,17.6,74,29.78,10.0,ESE,18.4,24.2,N/A,,Overcast,110,2013-02-20 23:39:00
4:53 PM,23.0,17.1,78,29.91,10.0,ESE,18.4,-,N/A,,Overcast,120,2013-02-20 23:53:00
5:53 PM,23.0,17.1,78,29.92,10.0,ESE,19.6,-,N/A,,Overcast,120,2013-02-21 00:53:00
6:53 PM,21.9,17.1,82,29.94,9.0,ESE,12.7,-,N/A,,Overcast,120,2013-02-21 01:53:00
7:48 PM,21.2,17.6,86,29.81,8.0,ESE,16.1,-,N/A,,Overcast,120,2013-02-21 02:48:00
7:53 PM,21.0,18.0,88,29.95,8.0,ESE,15.0,-,N/A,,Overcast,120,2013-02-21 02:53:00
8:29 PM,21.2,17.6,86,29.82,2.5,ESE,13.8,-,0.00,Snow,Light Snow,110,2013-02-21 03:29:00
8:53 PM,19.9,18.0,92,29.95,1.8,ESE,13.8,-,0.01,Snow,Light Snow,120,2013-02-21 03:53:00
9:36 PM,19.4,17.6,93,29.82,2.5,ESE,16.1,-,0.01,Snow,Light Snow,120,2013-02-21 04:36:00
9:53 PM,19.9,18.0,92,29.95,2.0,ESE,13.8,-,0.01,Snow,Light Snow,120,2013-02-21 04:53:00
10:04 PM,19.4,17.6,93,29.82,1.5,ESE,13.8,-,0.01,Snow,Light Snow,110,2013-02-21 05:04:00
10:18 PM,19.4,17.6,93,29.82,2.5,SE,12.7,-,0.01,Snow,Light Snow,130,2013-02-21 05:18:00
10:53 PM,19.9,17.1,89,29.95,1.8,ESE,12.7,-,0.02,Snow,Light Snow,110,2013-02-21 05:53:00
11:13 PM,19.4,17.6,93,29.82,3.0,ESE,13.8,-,0.01,Snow,Light Snow,120,2013-02-21 06:13:00
11:22 PM,19.4,17.6,93,29.82,2.5,ESE,15.0,-,0.01,Snow,Light Snow,120,2013-02-21 06:22:00
11:38 PM,19.4,15.8,86,29.82,5.0,ESE,12.7,-,0.01,Snow,Light Snow,120,2013-02-21 06:38:00
11:53 PM,19.0,16.0,88,29.95,8.0,ESE,12.7,-,0.01,,Mostly Cloudy,120,2013-02-21 06:53:00